Regional Weather Roundup
Issued by NWS

Home | Current Version | Previous Version | Text Only | Print | Product List | Glossary On
Versions: 1 2 3 4 5 6 7 8 9 10 11 12 13 14 15 16 17 18 19 20 21 22 23 24 25 26 27 28 29 30 31 32 33 34 35 36 37 38 39 40 41 42 43 44 45 46 47 48 49 50
108
ASUS44 KLIX 061610
RWRLA
LOUISIANA WEATHER ROUNDUP
NATIONAL WEATHER SERVICE NEW ORLEANS LA
1000 AM CST SAT FEB 06 2016

NOTE: "FAIR" INDICATES FEW OR NO CLOUDS BELOW 12,000 FEET WITH NO
      SIGNIFICANT WEATHER AND/OR OBSTRUCTIONS TO VISIBILITY.
      SKY/WX - SKY CONDITION AND SIGNIFICANT WEATHER.
      TMP - AIR TEMPERATURE.    DP   - DEWPOINT TEMPERATURE.
      RH  - RELATIVE HUMIDITY.  PRES - PRESSURE.
      HX  - HEAT INDEX.         WCI  - WIND CHILL INDEX.

*  THESE STATIONS ARE NOT NWS OR FAA STATIONS AND ARE NOT UNDER
   NWS QUALITY CONTROL.

LAZ040-048-061>063-065-066-069-061700-
SOUTHEAST LOUISIANA

CITY           SKY/WX    TMP DP  RH WIND       PRES   REMARKS
N.O. AUDUBON   NOT AVBL
N.O. INTL ARPT PTSUNNY   55  24  30 NE10      30.36R
N.O. LAKEFRONT SUNNY     51  28  41 NE9       30.37R
N.O. DOWNTOWN* FAIR      54  30  40 MISG      30.37R
RESERVE*       PTSUNNY   55  28  35 E9        30.36S
SLIDELL        MOSUNNY   50  24  36 E5        30.36R
BATON ROUGE    SUNNY     49  28  44 E6        30.36F
BOOTHVILLE     SUNNY     53  37  54 NE8       30.35R
BELLE CHASSE   PTSUNNY   53  29  39 E9        30.35R
BOGALUSA*        N/A     49  31  49 CALM      30.39S
GALLIANO*      MOSUNNY   55  32  42 E7        30.35R
NEW ROADS*     FAIR      48  29  47 CALM      30.37S
GONZALES*      FAIR      49  37  64 CALM      30.35S
HAMMOND*       PTSUNNY   50  21  32 E5        30.36S
HOUMA*         MOSUNNY   52  36  54 NE5       30.35R
PORT FOURCHON* SUNNY     54  36  50 E13       30.35R

$$

LAZ041-044-053-054-061700-
SOUTHWEST LOUISIANA

CITY           SKY/WX    TMP DP  RH WIND       PRES   REMARKS
LAKE CHARLES   CLOUDY    43  39  86 E10       30.36F
LAFAYETTE      SUNNY     53  29  39 E3        30.36R
PATTERSON      MOSUNNY   50  30  46 NE6       30.37R
SALT POINT       N/A     49  35  58 VRB5      30.34S
NEW IBERIA     SUNNY     51  26  37 E8        30.36R
CHENAULT AIRPK CLOUDY    45  39  81 NE9       30.36

$$

LAZ027-028-061700-
CENTRAL LOUISIANA

CITY           SKY/WX    TMP DP  RH WIND       PRES   REMARKS
FORT POLK      CLOUDY    41  39  93 E5        30.34F
ALEXANDRIA INT PTSUNNY   49  32  52 SW6       30.35R
ALEXANDRIA     SUNNY     54  27  35 W3        30.36R

$$

LAZ001-002-061700-
NORTHWEST LOUISIANA

CITY           SKY/WX    TMP DP  RH WIND       PRES   REMARKS
SHREVEPORT     CLOUDY    45  32  60 SE7       30.34R
BARKSDALE AFB  PTSUNNY   44  32  64 E5        30.34R
DTN SHREVEPORT PTSUNNY   45  31  58 E6        30.34S

$$

LAZ014-016-061700-
NORTHEAST LOUISIANA

CITY           SKY/WX    TMP DP  RH WIND       PRES   REMARKS
MONROE         MOSUNNY   47  31  53 CALM      30.38R
TALLULAH       SUNNY     49  27  42 S5        30.38R

$$





USA.gov is the U.S. government's official web portal to all federal, state and local government web resources and services.